Location: Dąbrówka
(52.2799°N, 15.8070°E)
Time: 06:00:20
(UTC+02:00)

OTV 5 (USA 277) - Visible Passes

Search period start: 22 April 2019 00:00
Search period end: 02 May 2019 00:00
Orbit: 309 x 326 km, 54.5° (Epoch: 21 April)

Date Brightness Start Highest point End Pass type
(mag) Time Alt. Az. Time Alt. Az. Time Alt. Az.
22 Apr ? 03:16:42 14° ESE 03:16:42 14° ESE 03:17:07 10° ESE visible
22 Apr ? 04:47:41 14° WSW 04:48:23 15° SW 04:50:00 10° S visible
23 Apr ? 21:24:53 10° S 21:25:21 12° S 21:25:21 12° S visible
24 Apr ? 21:38:45 10° SSW 21:41:13 31° SSE 21:41:46 28° ESE visible
24 Apr ? 23:12:43 10° W 23:12:45 10° W 23:12:45 10° W visible
25 Apr ? 21:53:09 10° SW 21:55:51 60° SSE 21:57:17 23° E visible
25 Apr ? 23:27:34 10° W 23:28:14 16° W 23:28:14 16° W visible
26 Apr ? 22:07:50 10° WSW 22:10:35 80° N 22:12:13 21° ENE visible
26 Apr ? 23:42:24 10° WNW 23:43:08 16° WNW 23:43:08 16° WNW visible
27 Apr ? 20:48:25 10° SW 20:51:03 43° SSE 20:53:40 10° ENE visible
27 Apr ? 22:22:39 10° W 22:25:21 56° N 22:26:46 24° ENE visible
27 Apr ? 23:57:12 10° WNW 23:57:40 14° WNW 23:57:40 14° WNW visible
28 Apr ? 21:02:59 10° WSW 21:05:43 80° SSE 21:08:27 10° ENE visible
28 Apr ? 22:37:30 10° W 22:40:10 49° N 22:41:06 32° NE visible
29 Apr ? 00:11:57 10° WNW 00:11:59 10° WNW 00:11:59 10° WNW visible
29 Apr ? 21:17:44 10° W 21:20:28 66° NNW 21:23:11 10° ENE visible
29 Apr ? 22:52:19 10° WNW 22:55:00 52° N 22:55:18 49° NE visible
30 Apr ? 21:32:35 10° W 21:35:16 51° N 21:37:56 10° ENE visible
30 Apr ? 23:07:04 10° WNW 23:09:25 56° NW 23:09:25 56° NW visible
01 May ? 21:47:25 10° WNW 21:50:05 49° N 21:52:36 11° E visible
01 May ? 23:21:49 10° WNW 23:23:28 32° WNW 23:23:28 32° WNW visible
